CZ-4C DEB, 44613

Orbit data source: Space-Track

CZ-4C DEB, 44613 is space debris in SSO originally from a launch on Tue, 14 Nov 2017 UTC launched from the Taiyaun Space Center, China (TSC). Debris objects in space refer to the collection of defunct objects orbiting the Earth. Examples of debris include non-operational satellites, rocket bodies, and fragments generated from explosions, collisions, or faulty payload assembly.

Loading next visibility...
Identifier
44613, 2017-072D
Orbit
SSO
Last TLE update
2 days ago
Origin
Manufacturer
Unknown
Mission
Spacecraft
Bus & Motor
Unknown
Mass
Unknown
Launch date (UTC)
2017-11-14 (8 years ago)
Launch vehicle
Unknown
Launch site
Taiyaun Space Center, China (TSC)
Object type
Payload
Rocket body
Debris
Shape & HBR
Unknown
Radar Cross Section
Small (<0.1 m²)

Expand to show TLE details & history

TLE from 2 days ago
0 CZ-4C DEB
1 44613U 17072D   25182.64251444  .00000418  00000-0  36300-3 0  9991
2 44613  98.5387 247.3051 0229518 219.6388 138.7794 13.79740068369592
Epoch: 2025-07-01T15:25Z
TLE epoch observation values (Epoch: 2025-07-01T15:25:13.247Z)
Latitude
0.00005°
Longitude
96.06486°
Altitude
1,096.102 km
Speed
7.24 km/s
True Right ascension
16h 29m 13s
True Declination
0° 00' 00"
Sunlit
Object was in full shadow at epoch
Visualization orbit readout
Latitude
-10.99303°
Longitude
99.16656°
Altitude
1,084.231 km
Speed
7.252 km/s
Apparent Right ascension
15h 21m 23s
Apparent Declination
-63° 59' 28"
Sunlit
Object is in full shadow
Visualization observer readout
Local Sidereal Time
17:24:49
Azimuth
193.585° SSW
Elevation
-16.736°
Doppler factor
1
Orbital elements
Apogee altitude
1,130.481 km
Perigee altitude
793.542 km
Semi-major axis
7,340.148 km
Eccentricity
0.02295
Inclination
98.5387°
RAAN
247.3051°
Arg. of periapsis
219.6388°
True anomaly
Unknown
Mean anomaly
138.7794°
Eccentric anomaly
Unknown
Mean motion
3.45133 °/min
Orbital period
104.31 mins
BSTAR
0.000363
Loading maneuver chart data...
Loading SW <> Apogee altitude chart data...
Loading historical data...
Loading historical data...
Loading historical data...
Loading historical data...
Loading historical data...
Loading historical data...
Loading historical data...
Other satellites on launch #72 in the year 2017 (2017-11-14 UTC)

CZ-4C DEB Visibility forecast

Observer location: undefined°, undefined°

Span
Click to sort rows by Start time (UTC) header in descending order
Start Az.
Max El. time (UTC)
Max El. Az.
Max El.
End time (UTC)
End Az.
8 mins2025-07-03 05:50:17.088Z233.415° WSW2025-07-03 05:54:17.088Z271.824° WNW17.584°2025-07-03 05:58:17.088Z309.263° NW
10 mins2025-07-03 16:46:17.088Z25.617° NE2025-07-03 16:51:17.088Z107.927° ESE38.739°2025-07-03 16:56:17.088Z175.711° S
7 mins2025-07-03 18:30:17.088Z338.398° N2025-07-03 18:33:17.088Z303.451° NW20.739°2025-07-03 18:37:17.088Z254.113° W
8 mins2025-07-04 02:46:17.088Z97.405° ESE2025-07-04 02:50:17.088Z55.981° ENE19.814°2025-07-04 02:54:17.088Z18.017° NNE
11 mins2025-07-04 04:27:17.088Z174.379° S2025-07-04 04:32:17.088Z263.83° W44.041°2025-07-04 04:38:17.088Z342.522° N
|